Date String (YYYY-MM-DD hh:mm:ss) UTC,Instrument flags,Ambient pressure (hPa),Sample flow (lpm),Bypass flow (lpm),Sample temperature (°C),Ambient temperature (°C),ASC tube jacket temperature (°C),LED temperature (°C),Box temperature (°C),Sample RH (%),Span deviation,Mass concentration (μg/m³),Mass concentration (μg/m³),Mass concentration (μg/m³)
DateTimeUTC,F1_M11,P_M11,Q1_M11,Q2_M11,T1_M11,T2_M11,T3_M11,T4_M11,T5_M11,U1_M11,ZSPAN_M11,X2_M11,X0_M11,X1_M11
2022-05-10 13:00:00,,0826.5,5.00,0.00,26.9,26.0,00.0,35.9,28.7,12.8,0000.0,0004.66,0013.31,0001.85
2022-05-10 13:01:00,,0826.5,5.00,0.00,26.9,25.9,00.0,35.9,28.7,12.9,0000.0,0004.67,0013.49,0001.85
2022-05-10 13:02:00,,0826.5,5.00,0.00,26.9,25.9,00.0,35.9,28.6,12.9,0000.0,0004.61,0013.28,0001.84
2022-05-10 13:03:00,,0826.5,5.01,0.00,26.8,25.9,00.0,35.9,28.6,13.1,0000.0,0004.62,0013.28,0001.83
2022-05-10 13:04:00,,0826.5,4.99,0.00,26.8,25.9,00.0,35.9,28.6,13.1,0000.0,0004.63,0013.34,0001.84
2022-05-10 13:05:00,,0826.5,5.01,0.00,26.9,26.0,00.0,35.9,28.7,13.3,0000.0,0004.65,0013.32,0001.85
2022-05-10 13:06:00,,0826.5,4.99,0.00,26.9,26.1,00.0,35.9,28.7,13.4,0000.0,0004.66,0013.54,0001.86
2022-05-10 13:07:00,,0826.6,5.00,0.00,26.9,26.1,00.0,35.8,28.7,13.2,0000.0,0004.65,0013.64,0001.86
2022-05-10 13:08:00,,0826.5,4.99,0.00,26.9,26.1,00.0,35.8,28.7,13.4,0000.0,0004.68,0013.76,0001.85
2022-05-10 13:09:00,,0826.6,5.01,0.00,26.9,26.2,00.0,35.9,28.7,13.6,0000.0,0004.70,0014.00,0001.85
2022-05-10 13:10:00,,0826.6,4.99,0.00,26.9,26.1,00.0,35.9,28.7,13.5,0000.0,0004.78,0013.97,0001.86
2022-05-10 13:11:00,,0826.6,5.01,0.00,26.9,26.1,00.0,35.8,28.7,13.2,0000.0,0004.83,0014.09,0001.87
2022-05-10 13:12:00,,0826.6,4.99,0.00,26.8,26.0,00.0,35.8,28.6,12.9,0000.0,0004.83,0014.01,0001.85
2022-05-10 13:13:00,,0826.6,5.01,0.00,26.8,26.1,00.0,35.8,28.6,13.0,0000.0,0004.92,0014.53,0001.87
2022-05-10 13:14:00,,0826.6,4.99,0.00,26.8,26.0,00.0,35.8,28.6,12.6,0000.0,0005.03,0015.80,0001.88
2022-05-10 13:15:00,,0826.6,5.01,0.00,26.8,26.0,00.0,35.8,28.6,12.7,0000.0,0005.04,0016.16,0001.87
2022-05-10 13:16:00,,0826.6,4.99,0.00,26.8,26.0,00.0,35.8,28.6,12.4,0000.0,0004.95,0016.48,0001.86
2022-05-10 13:17:00,,0826.6,5.01,0.00,26.8,25.9,00.0,35.8,28.5,12.5,0000.0,0004.94,0017.35,0001.86
2022-05-10 13:18:00,,0826.6,5.01,0.00,26.7,25.9,00.0,35.8,28.5,12.4,0000.0,0004.93,0017.89,0001.86
2022-05-10 13:19:00,,0826.6,5.00,0.00,26.7,25.8,00.0,35.8,28.4,12.3,0000.0,0004.93,0018.03,0001.87
2022-05-10 13:20:00,,0826.7,5.00,0.00,26.6,25.8,00.0,35.7,28.4,12.5,0000.0,0004.96,0018.11,0001.87
2022-05-10 13:21:00,,0826.7,5.00,0.00,26.6,25.7,00.0,35.7,28.4,12.3,0000.0,0004.88,0017.46,0001.86
2022-05-10 13:22:00,,0826.7,5.00,0.00,26.6,25.7,00.0,35.7,28.3,12.5,0000.0,0004.91,0017.54,0001.85
2022-05-10 13:23:00,,0826.7,5.00,0.00,26.6,25.7,00.0,35.7,28.3,12.1,0000.0,0004.94,0017.48,0001.85
2022-05-10 13:24:00,,0826.7,4.99,0.00,26.6,25.7,00.0,35.7,28.3,12.2,0000.0,0004.98,0018.05,0001.85
2022-05-10 13:25:00,,0826.7,5.00,0.00,26.6,25.6,00.0,35.7,28.3,12.4,0000.0,0004.93,0017.12,0001.86
2022-05-10 13:26:00,,0826.7,4.99,0.00,26.5,25.6,00.0,35.6,28.3,12.6,0000.0,0004.92,0016.52,0001.86
2022-05-10 13:27:00,,0826.7,5.01,0.00,26.5,25.6,00.0,35.6,28.2,13.0,0000.0,0004.89,0015.68,0001.85
2022-05-10 13:28:00,,0826.7,4.99,0.00,26.5,25.6,00.0,35.6,28.2,13.2,0000.0,0004.91,0014.68,0001.86
2022-05-10 13:29:00,,0826.7,5.01,0.00,26.5,25.6,00.0,35.6,28.2,13.0,0000.0,0004.96,0014.07,0001.90
2022-05-10 13:30:00,,0826.7,4.99,0.00,26.5,25.5,00.0,35.6,28.2,12.7,0000.0,0004.98,0014.42,0001.91
2022-05-10 13:31:00,,0826.8,4.99,0.00,26.4,25.4,00.0,35.6,28.2,12.2,0000.0,0004.93,0014.19,0001.90
2022-05-10 13:32:00,,0826.8,5.01,0.00,26.4,25.4,00.0,35.5,28.2,11.8,0000.0,0004.91,0014.06,0001.90
2022-05-10 13:33:00,,0826.9,5.01,0.00,26.4,25.4,00.0,35.5,28.1,12.3,0000.0,0004.95,0015.53,0001.92
2022-05-10 13:34:00,,0826.8,5.00,0.00,26.4,25.4,00.0,35.5,28.1,12.7,0000.0,0004.90,0016.06,0001.94
2022-05-10 13:35:00,,0827.0,5.00,0.00,26.4,25.4,00.0,35.5,28.1,12.8,0000.0,0004.89,0016.36,0001.93
2022-05-10 13:36:00,,0826.8,5.00,0.00,26.3,25.4,00.0,35.5,28.1,12.7,0000.0,0004.84,0016.52,0001.92
2022-05-10 13:37:00,,0826.8,5.01,0.00,26.3,25.4,00.0,35.4,28.1,12.3,0000.0,0004.79,0016.49,0001.91
2022-05-10 13:38:00,,0826.8,4.99,0.00,26.3,25.3,00.0,35.4,28.0,10.7,0000.0,0004.84,0016.41,0001.90
2022-05-10 13:39:00,,0827.1,5.01,0.00,26.3,25.3,00.0,35.4,28.0,10.6,0000.0,0004.79,0016.43,0001.85
2022-05-10 13:40:00,,0826.9,5.01,0.00,26.2,25.3,00.0,35.4,28.0,10.6,0000.0,0004.72,0016.48,0001.81
2022-05-10 13:41:00,,0826.9,5.00,0.00,26.2,25.3,00.0,35.4,28.0,11.3,0000.0,0004.66,0016.16,0001.78
2022-05-10 13:42:00,,0826.9,5.01,0.00,26.2,25.2,00.0,35.3,27.9,10.8,0000.0,0004.63,0016.16,0001.76
2022-05-10 13:43:00,,0826.9,4.98,0.00,26.2,25.2,00.0,35.3,27.9,10.8,0000.0,0004.63,0016.28,0001.76
2022-05-10 13:44:00,,0826.9,5.01,0.00,26.1,25.2,00.0,35.3,27.9,10.9,0000.0,0004.56,0014.97,0001.71
2022-05-10 13:45:00,,0826.9,5.00,0.00,26.1,25.2,00.0,35.3,27.9,11.3,0000.0,0004.54,0014.44,0001.67
2022-05-10 13:46:00,,0826.9,5.00,0.00,26.1,25.1,00.0,35.2,27.8,11.5,0000.0,0004.46,0013.24,0001.67
2022-05-10 13:47:00,,0826.9,4.99,0.00,26.1,25.1,00.0,35.2,27.8,11.8,0000.0,0004.40,0012.47,0001.65
2022-05-10 13:48:00,,0826.9,4.99,0.00,26.1,25.1,00.0,35.2,27.8,12.0,0000.0,0004.35,0012.37,0001.64
2022-05-10 13:49:00,,0826.9,5.01,0.00,26.0,25.1,00.0,35.2,27.8,11.4,0000.0,0004.31,0012.03,0001.62
2022-05-10 13:50:00,,0826.8,4.99,0.00,26.0,25.1,00.0,35.2,27.8,11.8,0000.0,0004.25,0011.84,0001.64
2022-05-10 13:51:00,,0826.9,5.01,0.00,26.0,25.0,00.0,35.2,27.8,11.6,0000.0,0004.26,0011.99,0001.64
2022-05-10 13:52:00,,0827.0,4.99,0.00,26.0,25.0,00.0,35.1,27.7,11.1,0000.0,0004.19,0011.80,0001.64
2022-05-10 13:53:00,,0826.9,5.00,0.00,26.0,25.0,00.0,35.1,27.7,11.1,0000.0,0004.22,0011.56,0001.66
2022-05-10 13:54:00,,0826.9,4.99,0.00,25.9,25.0,00.0,35.1,27.7,11.1,0000.0,0004.21,0011.34,0001.65
2022-05-10 13:55:00,,0827.0,5.00,0.00,25.9,25.0,00.0,35.1,27.6,11.2,0000.0,0004.26,0011.30,0001.66
2022-05-10 13:56:00,,0827.0,5.00,0.00,25.9,25.0,00.0,35.0,27.6,10.9,0000.0,0004.28,0011.63,0001.66
2022-05-10 13:57:00,,0827.0,5.01,0.00,25.9,24.9,00.0,35.0,27.6,10.9,0000.0,0004.29,0011.86,0001.65
2022-05-10 13:58:00,,0827.0,4.99,0.00,25.9,24.9,00.0,35.0,27.6,10.6,0000.0,0004.27,0012.05,0001.63
2022-05-10 13:59:00,,0827.1,5.01,0.00,25.8,24.9,00.0,35.0,27.6,10.7,0000.0,0004.31,0012.29,0001.63
